This is the latest recevied weather packets stored in our database for station/object KC3QLX. If no packets are shown the sender has not sent any weather packets the latest 10 day(s).
| Time | Temp. | Humidity | Pressure | Rain* | Wind** | Luminosity | Snow |
|---|---|---|---|---|---|---|---|
| 1777748080 | 12.22° C | 45% | 1012.3 hPa | 0 mm | - | 219 W/m² | - |
| 1777747777 | 12.78° C | 45% | 1012.3 hPa | 0 mm | - | 216 W/m² | - |
| 1777747472 | 13.89° C | 44% | 1012.4 hPa | 0 mm | - | 627 W/m² | - |
| 1777747169 | 12.78° C | 47% | 1012.4 hPa | 0 mm | - | 810 W/m² | - |
| 1777746865 | 12.78° C | 46% | 1012.2 hPa | 0 mm | - | 186 W/m² | - |
| 1777746560 | 12.22° C | 45% | 1012.3 hPa | 0 mm | - | 208 W/m² | - |
| 1777746256 | 11.67° C | 50% | 1012.3 hPa | 0 mm | - | 187 W/m² | - |
| 1777745953 | 12.22° C | 50% | 1012.2 hPa | 0 mm | - | 170 W/m² | - |
| 1777745651 | 12.22° C | 45% | 1012.3 hPa | 0 mm | - | 165 W/m² | - |
| 1777745349 | 12.22° C | 51% | 1012.2 hPa | 0 mm | - | 196 W/m² | - |
| 1777745046 | 12.22° C | 54% | 1012.4 hPa | 0 mm | - | 219 W/m² | - |
| 1777744742 | 11.67° C | 50% | 1012.2 hPa | 0 mm | - | 188 W/m² | - |
| 1777744436 | 12.22° C | 49% | 1012.3 hPa | 0 mm | - | 209 W/m² | - |
| 1777744133 | 12.78° C | 45% | 1012.2 hPa | 0 mm | - | 239 W/m² | - |
| 1777743830 | 12.78° C | 46% | 1012.3 hPa | 0 mm | - | 634 W/m² | - |
| 1777743527 | 12.78° C | 52% | 1012.1 hPa | 0 mm | - | 844 W/m² | - |
| 1777743224 | 13.33° C | 47% | 1012.3 hPa | 0 mm | - | 241 W/m² | - |
| 1777742922 | 12.78° C | 46% | 1012.3 hPa | 0 mm | - | 844 W/m² | - |
| 1777742619 | 11.67° C | 54% | 1012.1 hPa | 0 mm | - | 580 W/m² | - |
| 1777742314 | 11.67° C | 50% | 1012.3 hPa | 0 mm | - | 170 W/m² | - |
| 1777742011 | 12.78° C | 49% | 1012.4 hPa | 0 mm | - | 176 W/m² | - |
| 1777741708 | 11.67° C | 48% | 1012.5 hPa | 0 mm | - | 876 W/m² | - |
| 1777741404 | 11.67° C | 47% | 1012.4 hPa | 0 mm | - | 185 W/m² | - |
| 1777741101 | 12.22° C | 48% | 1012.6 hPa | 0 mm | - | 147 W/m² | - |
| 1777740798 | 13.33° C | 46% | 1012.7 hPa | 0 mm | - | 196 W/m² | - |
* Rain latest hour (hover to see other rain measurements)
** Current wind speed in m/s (hover to see current wind gust speed)